www.pogodaiklimat.ru

Погода и климат >> Архив погоды >> Россия >> Иркутская область >> Карам


ПОГОДА в Караме

  • Прогноз погоды в Караме
  • Монитор погоды в Караме

АРХИВ ПОГОДЫ в Караме

Время (UTC), дата Ветер
(напр.,м/с)
 
Видим.   Явления Облачность Т
(С)
Тd
(С)
f
(%)
Тe
(С)
Тes
(С)
Комфортность P
(гПа)
Po
(гПа)
Тmin
(С)
Tmax
(С)
R
(мм)
R24
(мм)
S
(см)
18 14.08 ЮЗ 2 н/о 8/4 600 м
[Cb cap]
+9.9 +8.7 92 +8 +8 1014.4 955.8
00 15.08 ЮЗ 1 10 км дым 10/10 600 м
[Cb cap]
+11.0 +9.4 90 +11 +11 1015.7 957.4 +7.1
03 15.08 СВ 1 10 км дым 10/10 600 м
[Cb cap]
+17.8 +11.2 65 +19 +19 1015.2 958.1
06 15.08 В 2 20 км 9/9 600 м
[Cb cap]
+18.8 +9.6 55 +20 +21 1013.4 956.6
09 15.08 В 2 20 км 9/9 600 м
[Cb cap]
+19.8 +9.5 51 +22 +22 комфорт 1012.7 955.2
12 15.08 СЗ 2 20 км 9/8 600 м
[Cb cap Cs]
+15.0 +10.7 75 +15 +15 1012.9 955.5 +22.0
15 15.08 штиль 0 н/о 6/1 600 м
[Cb cap Ci fib]
+9.6 +6.4 80 +9 +9 1014.6 955.9
18 15.08 штиль 0 н/о дымка 4/1 600 м
[Cb cap Ci fib]
+8.0 +5.3 83 +7 +7 1015.2 955.2
21 15.08 СЗ 2 2000 м дымка 6/3 600 м
[Cb cap Ci fib]
+6.2 +4.1 86 +4 +4 1015.7 956.3
00 16.08 ЮЗ 2 500 м туман ?/? +7.0 +5.4 90 +5 +5 1016.2 956.9 +5.5
03 16.08 В 1 10 км дым {туман} 4/0
[Ci fib]
+15.3 +8.6 64 +16 +27 1014.0 956.5
06 16.08 В 4 10 км дым {туман} 8/1 600 м
[Cu med, cong Ci fib]
+20.5 +8.0 44 +22 +27 комфорт 1011.0 954.6
09 16.08 СВ 4 20 км 6/3 600 м
[Cb cap Ci fib]
+23.4 +7.9 37 +24 +26 комфорт 1009.1 953.4
12 16.08 СВ 2
{11}
20 км 8/6 600 м
[Cb cap Ci fib]
+19.4 +7.2 45 +21 +21 комфорт 1009.8 953.3 +24.5
15 16.08 ЮЗ 2 н/о ясно +10.3 +8.0 86 +9 +9 1011.6 953.3
18 16.08 ЮЗ 2 н/о ясно +7.1 +6.0 93 +5 +5 1012.1 953.1
21 16.08 З 1 2000 м дымка 3/0
[Ci fib]
+4.1 +3.4 95 +3 +3 1012.8 953.1
00 17.08 СВ 1 2000 м дымка 9/9 600 м
[Cb cap]
+7.4 +6.1 91 +6 +7 1011.9 953.0 +3.1
03 17.08 В 3 10 км дым 9/8 600 м
[Cb cap Cs]
+13.7 +8.3 70 +13 +14 1009.7 952.2
06 17.08 В 5 10 км дым 9/0
[Cs]
+19.1 +10.2 56 +20 +24 1006.6 950.3
09 17.08 СВ 5 20 км 9/0
[Cs]
+21.6 +9.3 45 +23 +25 комфорт 1005.0 949.3
12 17.08 СВ 3 10 км дым 3/1 1000 м
[Sc Ci fib]
+18.5 +8.7 53 +19 +19 1006.8 950.3 +23.4
15 17.08 С 4 н/о дым 10/5 600 м
[Cb cap Cs]
+15.3 +8.9 66 +14 +14 1009.1 951.9
18 17.08 ЮЗ 3 н/о дым 10/10 600 м
[Cb cap]
+14.7 +9.9 73 +14 +14 1010.0 952.6
21 17.08 С 3 10 км дым 10/10 600 м
[Cb cap]
+13.5 +8.7 73 +12 +12 1011.5 953.8
00 18.08 штиль 0 10 км дым 10/10 600 м
[Cb cap]
+13.6 +8.2 70 +13 +13 1011.9 954.3 +13.0
03 18.08 В 1 10 км дым 10/10 600 м
[Cb cap]
+16.6 +9.1 61 +18 +18 1011.8 954.7
06 18.08 В 2 10 км дым 10/10 600 м
[Cb cap]
+16.0 +9.7 66 +16 +16 1011.9 954.7
09 18.08 СВ 1 20 км 10/10 600 м
[Cb cap]
+16.3 +10.0 66 +17 +17 1011.2 954.1
12 18.08 штиль 0 20 км 9/6 600 м
[Cb cap Cs]
+15.0 +10.5 74 +15 +15 1011.2 953.9 +17.9
18 18.08 штиль 0 н/о 6/1 600 м
[Cb cap Ci fib]
+7.8 +4.9 82 +7 +7 1013.5 954.6
21 18.08 штиль 0 4000 м дымка 4/1 600 м
[Cb cap Ci fib]
+5.0 +2.5 84 +4 +4 1014.4 954.7
00 19.08 З 1 500 м туман ?/? +6.0 +4.1 88 +5 +5 1014.1 954.7 +4.6
03 19.08 штиль 0 10 км дым {туман} 4/1 600 м
[Cb cap Ci fib]
+14.1 +7.6 65 +14 +25 опасность
простуды
1010.8 953.3
06 19.08 В 3 10 км дым {туман} 9/9 600 м
[Cb cap]
+20.5 +7.8 44 +22 +23 комфорт 1008.3 952.1
09 19.08 С 4 10 км дым 9/9 600 м
[Cb cap]
+19.4 +6.5 43 +20 +20 1008.5 952.1
12 19.08 СВ 3 20 км 9/8 600 м
[Cb cap Cs]
+17.1 +8.3 56 +17 +17 1009.1 952.3 +22.5
18 19.08 З 2 н/о дымка 9/5 600 м
[Cb cap Cs]
+7.8 +6.5 91 +6 +6 1013.4 954.5
00 20.08 ЮЗ 3 10 км дым 10/10 600 м
[Cb cap]
+10.0 +8.8 92 +8 +8 1013.9 955.4 +6.0
06 20.08 Ю 1 20 км {ливн. осадки} 9/9 600 м
[Cb cap]
+16.5 +10.3 67 +17 +19 1013.0 955.9

 

Местоположение метеостанции Карам (Иркутская область, Россия): широта 55.15 долгота 107.60 высота над уровнем моря 496 м.

В архиве по умолчанию представлена погода в Караме за последнюю неделю. Архивные данные за месяц целиком и за предыдущие месяцы, начиная с января 2011 года, Вы можете получить, выбрав интересующий диапазон дат из раскрывающегося списка и нажав кнопку "Ввод!".


*Определитесь, кто Вы:
робот инопланетянин человек

Внимание! Время в таблицах - всемирное. Для получения местного времени необходимо прибавить поправку, которая равна 8 ч.

Смотрите также архив погоды в соседних городах и на ближайших метеорологических станциях:

Погода в Тырке (Иркутская область, Россия) (84 км)
Погода в Даване (Бурятия, Россия) (101 км)
Погода в Казачинске (Иркутская область, Россия) (130 км)
Погода в Солнечной (Иркутская область, Россия) (130 км)
Погода в Томпе (Бурятия, Россия) (134 км)
Погода в Нижнеангарске (Бурятия, Россия) (139 км)
Погода в Орлинге (Иркутская область, Россия) (151 км)
Погода в Баргузинском Заповеднике (Бурятия, Россия) (152 км)
Погода на Большом Ушканьем Острове (Бурятия, Россия) (156 км)
Погода в Жигалове (Иркутская область, Россия) (164 км)

Пояснения к столбцам:

Ветер - указаны скорость ветра в м/с - средняя за 10 мин, порывы в срок и между сроками (в фигурных скобках) и направление, откуда дует ветер: С - северный, СВ - северо-восточный, В - восточный, ЮВ - юго-восточный, Ю - южный, ЮЗ - юго-западный, З - западный, СЗ - северо-западный.
Видимость - горизонтальная дальность видимости в метрах или километрах. При видимости от 1 до 10 км при отсутствии осадков обычно наблюдается дымка, при ухудшении видимости до 1 км и менее - туман. В сухую погоду видимость может ухудшаться дымом, пылью или мглою.
Явления - указаны атмосферные явления, наблюдавшиеся в срок или в последний час перед сроком; фигурными скобками обозначены явления, наблюдавшиеся между сроками (за 1-3 часа до срока); квадратными скобками обозначены град или гололедные отложения с указанием их диаметра в мм.
Облачность - указаны через наклонную черту общая и нижняя облачность в баллах и высота нижней границы облаков в метрах; квадратными скобками обозначены формы облаков: Ci - перистые, Cs - перисто-слоистые, Cc - перисто-кучевые, Ac - высококучевые, As - высокослоистые, Sc - слоисто-кучевые, Ns - слоисто-дождевые, Cu - кучевые, Cb - кучево-дождевые. Подробнее классификацию облаков см. в Атласе облаков (PDF).
T - Температура воздуха - температура, измеренная на высоте 2 м над землей.
Td - Температура точки росы - температура, при понижении до которой содержащийся в воздухе водяной пар достигнет насыщения.
f - Относительная влажность воздуха - влажноcть воздуха, измеренная на высоте 2 м над землей.
Te - Эффективная температура - температура, которую ощущает одетый по сезону человек в тени. Характеристика душности погоды. При расчете учитывается влияние влажности воздуха и скорости ветра на теплоощущения человека.
Tes - Эффективная температура на солнце - температура, которую ощущает человек, с поправкой на солнечный нагрев. Характеристика знойности погоды. Зависит от высоты солнца над горизонтом, облачности и скорости ветра. Ночью, в пасмурную погоду, а также при ветре 12 м/с и более поправка равна нулю.
P - Атмосферное давление - приведенное к уровню моря атмосферное давление.
Po - Атмосферное давление - измеренное на уровне метеостанции атмосферное давление.
Tmin - Минимальная температура - минимум температуры воздуха на высоте 2 м над землей.
Tmax - Максимальная температура - максимум температуры воздуха на высоте 2 м над землей.
R - Количество осадков - Количество выпавших осадков за период времени, мм. При наведении курсора мыши на число - период времени, за который выпало указанное количество осадков.
R24 - Количество осадков - Количество выпавших осадков за 24 часа, мм.
S - Снежный покров - Высота снежного покрова, см. При наведении курсора мыши на число - состояние снежного покрова и степень покрытия местности в баллах.